[[{"header":{"parameterUnit":"m.s-1","parameterCategory":1,"la1":30.2991,"la2":30.254,"lo1":-89.0895,"lo2":-89.0444,"dy":0.0017,"dx":0.0017,"nx":28,"ny":28,"refTime":"2025-08-06T21:00:00:Z","depth":0,"parameterNumber":2,"parameterNumberName":"U-component_of_WINDS"},"data":[0,0,0,0,0,0,0,0,0,0,0,0,0,0,0,0,0,0,0,0,0,0,0,0,0,0,0,0,0,0,0,0,0,0,0,0,0,0,0,0,0,0,0,0,0,0,0,0,0,0,0,0,0,0,0,0,0,0,-1.2778,-1.278,0,-1.2897,-1.2898,-1.2899,-1.2928,-1.2928,-1.2927,-1.2926,-1.3049,-1.3053,-1.3057,0,0,0,0,0,0,0,0,0,0,0,0,0,-1.258,-1.2584,-1.2778,-1.278,-1.2781,-1.2897,-1.2898,-1.29,-1.2929,-1.2928,-1.2927,-1.2926,-1.3048,-1.3053,-1.3058,0,0,0,0,0,0,0,0,0,0,0,0,0,-1.2679,-1.2585,-1.2778,-1.281,-1.2814,-1.2896,-1.2898,-1.29,-1.2929,-1.2928,-1.2926,-1.2925,-1.3047,-1.3052,-1.3058,-1.3119,0,0,-1.3077,-1.3079,0,0,0,0,0,0,0,0,-1.2674,-1.2687,-1.2803,-1.2808,-1.2812,-1.2897,-1.2874,-1.2974,-1.2929,-1.2885,-1.2926,-1.2925,-1.3,-1.3009,-1.3034,-1.3125,-1.313,-1.3077,-1.3081,-1.3083,-1.3085,0,0,0,0,0,0,0,-1.2667,-1.2682,-1.2825,-1.2805,-1.281,-1.2819,-1.2831,-1.2893,-1.2948,-1.2889,-1.2891,-1.2905,-1.3002,-1.3028,-1.3037,-1.3132,-1.3077,-1.3082,-1.3086,-1.3088,-1.3279,-1.328,0,0,0,0,0,0,-1.2654,-1.2676,-1.2822,-1.2829,-1.2739,-1.2823,-1.2838,-1.2871,-1.2947,-1.2957,-1.2906,-1.2906,-1.3019,-1.303,-1.3042,-1.3118,-1.3083,-1.3089,-1.3092,-1.3277,-1.3279,-1.328,0,0,0,0,0,0,-1.265,-1.2667,-1.2817,-1.2753,-1.2773,-1.2828,-1.2865,-1.2874,-1.29,-1.296,-1.297,-1.2922,-1.3018,-1.3033,-1.31,-1.3123,-1.3092,-1.3097,-1.3275,-1.3278,-1.328,-1.327,0,0,0,0,0,0,-1.2644,-1.2665,-1.2688,-1.2753,-1.2776,-1.2871,-1.2866,-1.2877,-1.291,-1.2911,-1.2978,-1.2988,-1.3018,-1.309,-1.3105,-1.313,-1.3102,-1.3274,-1.3276,-1.3279,-1.3269,-1.3272,-1.3274,0,0,0,0,0,-1.2637,-1.2681,-1.2689,-1.2706,-1.2805,-1.2873,-1.2886,-1.2919,-1.2912,-1.2936,-1.2974,-1.2986,-1.3118,-1.3097,-1.3114,-1.3141,-1.3272,-1.3276,-1.3279,-1.3267,-1.3271,-1.3274,0,0,0,0,0,0,-1.2617,-1.269,-1.2699,-1.2766,-1.2813,-1.2877,-1.2908,-1.2922,-1.2973,-1.2972,-1.3012,-1.3027,-1.309,-1.3123,-1.3098,-1.3204,-1.3195,-1.3202,-1.318,-1.3185,-1.3187,-1.3178,-1.3107,0,0,0,0,0,-1.262,-1.2668,-1.2729,-1.2782,-1.2805,-1.2852,-1.2883,-1.2905,-1.2956,-1.2976,-1.3019,-1.3068,-1.3121,-1.3155,-1.3206,-1.3274,-1.3289,-1.3301,-1.3304,-1.3306,-1.3311,-1.335,-1.3356,-1.3291,-1.3291,-1.3291,0,0,-1.2627,-1.2673,-1.2701,-1.2779,-1.2818,-1.2867,-1.2869,-1.2921,-1.2958,-1.2984,-1.3049,-1.3082,-1.314,-1.3207,-1.3239,-1.3236,-1.3333,-1.331,-1.3311,-1.3316,-1.3354,-1.336,-1.3365,-1.3293,-1.3293,-1.3293,0,0,-1.2666,-1.2705,-1.2753,-1.2792,-1.2851,-1.2883,-1.2894,-1.2957,-1.298,-1.3046,-1.3067,-1.3112,-1.3202,-1.3242,-1.3275,-1.333,-1.3343,-1.3346,-1.336,-1.3398,-1.3403,-1.3407,-1.3427,-1.3434,-1.3351,-1.3351,-1.3351,0,-1.2667,-1.2741,-1.2776,-1.2827,-1.2861,-1.2887,-1.2937,-1.2973,-1.3046,-1.307,-1.3065,-1.3179,-1.322,-1.3297,-1.331,-1.3336,-1.3351,-1.3338,-1.3399,-1.3404,-1.3409,-1.3428,-1.3435,-1.3351,-1.3351,-1.3351,-1.3351,0,-1.2741,-1.2792,-1.2824,-1.2893,-1.2931,-1.2981,-1.3025,-1.3059,-1.3079,-1.3111,-1.3178,-1.3228,-1.3291,-1.3311,-1.333,-1.3391,-1.3388,-1.3391,-1.3382,-1.3414,-1.3433,-1.3441,-1.3351,-1.3351,-1.3351,-1.3351,0,0,-1.2768,-1.2857,-1.2868,-1.29,-1.2967,-1.3008,-1.306,-1.3121,-1.315,-1.32,-1.3245,-1.3321,-1.3325,-1.3361,-1.3386,-1.3418,-1.3459,-1.3418,-1.342,-1.3423,-1.353,-1.3526,-1.3534,-1.3469,-1.347,-1.3471,-1.3525,0,-1.2815,-1.2907,-1.294,-1.3017,-1.3065,-1.3091,-1.3136,-1.3183,-1.3215,-1.3262,-1.3298,-1.3351,-1.3351,-1.3374,-1.3408,-1.3447,-1.3481,-1.3444,-1.3511,-1.3513,-1.3495,-1.3544,-1.3541,-1.3588,-1.3532,-1.3534,-1.3535,0,-1.288,-1.293,-1.3011,-1.3073,-1.3095,-1.3135,-1.3194,-1.3238,-1.3292,-1.3313,-1.3355,-1.3377,-1.3434,-1.3423,-1.3502,-1.3476,-1.3506,-1.3529,-1.3532,-1.3539,-1.3525,-1.3552,-1.3605,-1.3611,-1.3547,-1.3546,-1.3545,0,-1.2892,-1.298,-1.304,-1.3066,-1.314,-1.3168,-1.32,-1.3254,-1.3288,-1.334,-1.3363,-1.3421,-1.3453,-1.3498,-1.3536,-1.3525,-1.3612,-1.3604,-1.3631,-1.363,-1.3648,-1.3646,-1.3705,-1.3668,-1.3668,-1.3668,-1.3668,0,-1.2939,-1.2987,-1.3046,-1.3082,-1.3138,-1.3177,-1.3231,-1.3265,-1.3313,-1.3357,-1.3384,-1.3426,-1.3474,-1.3522,-1.3552,-1.3613,-1.3627,-1.3647,-1.3654,-1.3644,-1.3641,-1.3663,-1.3661,-1.367,-1.3669,-1.3669,-1.3669,0,-1.2961,-1.3002,-1.3068,-1.3133,-1.3151,-1.3189,-1.3245,-1.3282,-1.3316,-1.3372,-1.3388,-1.3441,-1.35,-1.3542,-1.3618,-1.3638,-1.3703,-1.3711,-1.3684,-1.3688,-1.3713,-1.371,-1.3788,-1.38,-1.3755,-1.3756,-1.3756,0,-1.2988,-1.3025,-1.3094,-1.3126,-1.3158,-1.3208,-1.3244,-1.3284,-1.332,-1.3386,-1.3415,-1.3475,-1.3525,-1.3617,-1.3663,-1.3722,-1.3731,-1.3754,-1.3739,-1.3728,-1.3731,-1.3727,-1.3732,-1.3756,-1.3756,-1.3756,-1.3756,0,-1.3031,-1.305,-1.3099,-1.3156,-1.3198,-1.3245,-1.3292,-1.3317,-1.3366,-1.3406,-1.3465,-1.3504,-1.3581,-1.364,-1.3703,-1.3738,-1.3756,-1.3761,-1.377,-1.376,-1.3742,-1.3752,-1.3689,-1.3759,-1.3758,-1.3758,-1.3758,-1.3758,-1.3056,-1.3091,-1.3145,-1.32,-1.324,-1.3284,-1.3322,-1.3361,-1.3411,-1.3476,-1.3497,-1.3559,-1.3614,-1.37,-1.3736,-1.3785,-1.3785,-1.3798,-1.3802,-1.3804,-1.3803,-1.3735,-1.3797,-1.3797,-1.3797,-1.3797,-1.3797,0,-1.3101,-1.3137,-1.3187,-1.3252,-1.3295,-1.3308,-1.3362,-1.3397,-1.3451,-1.35,-1.3549,-1.3618,-1.3676,-1.3727,-1.3788,-1.3818,-1.3827,-1.3832,-1.383,-1.3838,-1.3801,-1.3786,-1.3823,-1.3823,-1.3823,-1.3823,-1.3823,-1.3823,-1.3129,-1.3188,-1.3214,-1.3294,-1.3331,-1.339,-1.342,-1.3461,-1.3501,-1.3576,-1.3624,-1.3657,-1.3708,-1.3772,-1.3827,-1.384,-1.3861,-1.3864,-1.388,-1.3844,-1.384,-1.3837,-1.3824,-1.3868,-1.3868,-1.3913,-1.3913,-1.3913]},{"header":{"parameterUnit":"m.s-1","parameterCategory":1,"la1":30.2991,"la2":30.254,"lo1":-89.0895,"lo2":-89.0444,"dy":0.0017,"dx":0.0017,"nx":28,"ny":28,"refTime":"2025-08-06T21:00:00:Z","depth":0,"parameterNumber":3,"parameterNumberName":"V-component_of_WINDS"},"data":[0,0,0,0,0,0,0,0,0,0,0,0,0,0,0,0,0,0,0,0,0,0,0,0,0,0,0,0,0,0,0,0,0,0,0,0,0,0,0,0,0,0,0,0,0,0,0,0,0,0,0,0,0,0,0,0,0,0,-0.7122,-0.7123,0,-0.7207,-0.7208,-0.7209,-0.7273,-0.7273,-0.7274,-0.7274,-0.7362,-0.7364,-0.7366,0,0,0,0,0,0,0,0,0,0,0,0,0,-0.7016,-0.7018,-0.7122,-0.7123,-0.7124,-0.7207,-0.7208,-0.721,-0.7273,-0.7273,-0.7274,-0.7275,-0.7362,-0.7364,-0.7366,0,0,0,0,0,0,0,0,0,0,0,0,0,-0.7078,-0.7019,-0.7122,-0.7166,-0.7171,-0.7207,-0.7208,-0.721,-0.7273,-0.7273,-0.7274,-0.7275,-0.7361,-0.7364,-0.7367,-0.7367,0,0,-0.7375,-0.7376,0,0,0,0,0,0,0,0,-0.7074,-0.7082,-0.7158,-0.7163,-0.7168,-0.723,-0.7203,-0.7262,-0.7272,-0.7234,-0.7274,-0.7275,-0.7318,-0.7324,-0.7338,-0.7371,-0.7374,-0.7375,-0.7377,-0.7378,-0.7379,0,0,0,0,0,0,0,-0.707,-0.7078,-0.7156,-0.7159,-0.7166,-0.7182,-0.7192,-0.7215,-0.727,-0.7237,-0.7242,-0.7251,-0.7321,-0.7336,-0.7341,-0.7376,-0.7375,-0.7377,-0.7379,-0.738,-0.7414,-0.7413,0,0,0,0,0,0,-0.7059,-0.7074,-0.7153,-0.7159,-0.7122,-0.7183,-0.7194,-0.721,-0.727,-0.728,-0.725,-0.7254,-0.733,-0.7338,-0.7344,-0.7349,-0.7378,-0.738,-0.7382,-0.7414,-0.7413,-0.7413,0,0,0,0,0,0,-0.7056,-0.7065,-0.715,-0.7118,-0.713,-0.7184,-0.7201,-0.7211,-0.7226,-0.728,-0.729,-0.7255,-0.7331,-0.734,-0.7361,-0.7353,-0.7382,-0.7384,-0.7415,-0.7414,-0.7413,-0.7358,0,0,0,0,0,0,-0.7053,-0.7064,-0.7064,-0.7117,-0.7131,-0.7164,-0.7201,-0.7212,-0.723,-0.7235,-0.7287,-0.7297,-0.7333,-0.7356,-0.7363,-0.7357,-0.7386,-0.7416,-0.7415,-0.7413,-0.736,-0.7355,-0.735,0,0,0,0,0,-0.7049,-0.7045,-0.7064,-0.7073,-0.7133,-0.7164,-0.7172,-0.7213,-0.7229,-0.723,-0.7265,-0.7295,-0.7353,-0.7358,-0.7366,-0.7361,-0.7417,-0.7415,-0.7414,-0.7363,-0.7356,-0.735,0,0,0,0,0,0,-0.6989,-0.7053,-0.7074,-0.7087,-0.7119,-0.7174,-0.7177,-0.7204,-0.7233,-0.7237,-0.7287,-0.7298,-0.7313,-0.7339,-0.7344,-0.7365,-0.7389,-0.7388,-0.7347,-0.7341,-0.7336,-0.7329,-0.7389,0,0,0,0,0,-0.6978,-0.6997,-0.7052,-0.7058,-0.7073,-0.7122,-0.7137,-0.7166,-0.7202,-0.7216,-0.7252,-0.7286,-0.7312,-0.7328,-0.7355,-0.7365,-0.7377,-0.7365,-0.736,-0.7355,-0.7355,-0.7363,-0.7358,-0.7407,-0.7407,-0.7407,0,0,-0.6954,-0.6991,-0.7,-0.7047,-0.7076,-0.7095,-0.7133,-0.7152,-0.7167,-0.7219,-0.724,-0.7268,-0.731,-0.7325,-0.7333,-0.7347,-0.7344,-0.7353,-0.7349,-0.7351,-0.736,-0.7356,-0.7352,-0.7406,-0.7406,-0.7406,0,0,-0.6921,-0.695,-0.6959,-0.6987,-0.703,-0.7062,-0.7064,-0.7115,-0.7136,-0.7158,-0.7197,-0.7216,-0.726,-0.7288,-0.7307,-0.7286,-0.7315,-0.7293,-0.7266,-0.7273,-0.7269,-0.7266,-0.7259,-0.7255,-0.7292,-0.7292,-0.7292,0,-0.6886,-0.6916,-0.696,-0.6977,-0.6997,-0.7045,-0.7055,-0.708,-0.7129,-0.7141,-0.7156,-0.7212,-0.7243,-0.7266,-0.726,-0.7275,-0.7279,-0.7287,-0.7266,-0.7263,-0.7261,-0.7255,-0.7252,-0.7289,-0.729,-0.729,-0.729,0,-0.6872,-0.6893,-0.6895,-0.6941,-0.6961,-0.6974,-0.7021,-0.7036,-0.7064,-0.7095,-0.7117,-0.7156,-0.7192,-0.72,-0.7227,-0.7227,-0.7234,-0.7256,-0.7281,-0.7253,-0.7248,-0.7245,-0.7285,-0.7286,-0.7287,-0.7288,0,0,-0.6803,-0.6874,-0.6874,-0.6896,-0.6946,-0.6964,-0.6979,-0.7014,-0.7027,-0.7059,-0.7074,-0.711,-0.7131,-0.7154,-0.7185,-0.7191,-0.7172,-0.7213,-0.7215,-0.7204,-0.7175,-0.7158,-0.7154,-0.7191,-0.7191,-0.7191,-0.7172,0,-0.6778,-0.6808,-0.6849,-0.6866,-0.6886,-0.6932,-0.6946,-0.6979,-0.7008,-0.703,-0.7064,-0.7089,-0.7114,-0.7128,-0.7137,-0.7172,-0.7167,-0.7174,-0.7206,-0.7207,-0.7195,-0.7152,-0.7134,-0.7114,-0.717,-0.717,-0.7169,0,-0.6753,-0.6783,-0.6801,-0.6851,-0.6861,-0.6873,-0.6909,-0.6929,-0.6968,-0.6989,-0.7014,-0.7047,-0.7067,-0.709,-0.7118,-0.7122,-0.7138,-0.7158,-0.7158,-0.7163,-0.7186,-0.7156,-0.7108,-0.7105,-0.7167,-0.7167,-0.7167,0,-0.6701,-0.6746,-0.6763,-0.6781,-0.6839,-0.6846,-0.6871,-0.6911,-0.6929,-0.6961,-0.6974,-0.7007,-0.7025,-0.705,-0.7092,-0.7104,-0.7116,-0.7142,-0.7135,-0.7134,-0.7136,-0.7135,-0.709,-0.7145,-0.7145,-0.7145,-0.7145,0,-0.6669,-0.6679,-0.6741,-0.6752,-0.6765,-0.6811,-0.6823,-0.6852,-0.6887,-0.6905,-0.6946,-0.6962,-0.7016,-0.7039,-0.7072,-0.7091,-0.7099,-0.7117,-0.7126,-0.7113,-0.7111,-0.7124,-0.7127,-0.7144,-0.7145,-0.7145,-0.7145,0,-0.6613,-0.6655,-0.6677,-0.6731,-0.6745,-0.6752,-0.6798,-0.6811,-0.6843,-0.6865,-0.6873,-0.6924,-0.6953,-0.6997,-0.7039,-0.7061,-0.7075,-0.7089,-0.7061,-0.7067,-0.7057,-0.7058,-0.702,-0.7018,-0.7073,-0.7072,-0.7072,0,-0.659,-0.6599,-0.6653,-0.6668,-0.6691,-0.6714,-0.6734,-0.678,-0.6799,-0.6844,-0.6851,-0.6883,-0.6911,-0.6955,-0.6996,-0.7029,-0.7044,-0.7029,-0.7049,-0.7037,-0.7045,-0.7044,-0.7045,-0.7024,-0.7023,-0.7022,-0.7022,0,-0.6544,-0.6565,-0.6591,-0.6624,-0.6646,-0.6674,-0.6705,-0.6715,-0.6769,-0.6787,-0.6817,-0.6839,-0.6882,-0.6913,-0.6952,-0.6978,-0.7009,-0.7015,-0.7015,-0.7003,-0.6987,-0.6996,-0.7048,-0.7016,-0.7016,-0.7017,-0.7017,-0.7017,-0.6505,-0.6515,-0.6555,-0.6583,-0.6611,-0.6639,-0.6653,-0.6687,-0.6713,-0.6751,-0.6777,-0.6806,-0.6846,-0.69,-0.6925,-0.6948,-0.6962,-0.6962,-0.6962,-0.6961,-0.6957,-0.6983,-0.6956,-0.6956,-0.6956,-0.6956,-0.6956,0,-0.6462,-0.649,-0.6515,-0.6557,-0.6579,-0.6605,-0.6641,-0.6658,-0.6682,-0.6716,-0.6743,-0.6778,-0.6809,-0.6852,-0.6887,-0.6897,-0.6912,-0.6905,-0.6904,-0.691,-0.6943,-0.694,-0.6892,-0.6892,-0.6892,-0.6892,-0.6892,-0.6892,-0.6442,-0.6461,-0.6486,-0.652,-0.6548,-0.6576,-0.6594,-0.662,-0.6648,-0.6684,-0.671,-0.6738,-0.6777,-0.6814,-0.6844,-0.6857,-0.6867,-0.6855,-0.6872,-0.6902,-0.6908,-0.6913,-0.691,-0.6857,-0.6857,-0.6837,-0.6837,-0.6837]}]]